TimeCDT,TemperatureF,Dew PointF,Humidity,Sea Level PressureIn,VisibilityMPH,Wind Direction,Wind SpeedMPH,Gust SpeedMPH,PrecipitationIn,Events,Conditions,WindDirDegrees,DateUTC
12:53 AM,63.0,57.9,84,29.98,10.0,Calm,Calm,-,N/A,,Mostly Cloudy,0,2013-08-08 05:53:00
1:53 AM,62.1,57.0,84,29.99,10.0,North,4.6,-,N/A,,Clear,350,2013-08-08 06:53:00
2:53 AM,61.0,57.0,87,30.01,10.0,NNW,3.5,-,N/A,,Clear,340,2013-08-08 07:53:00
3:53 AM,60.1,57.0,90,30.00,10.0,North,3.5,-,N/A,,Clear,360,2013-08-08 08:53:00
4:25 AM,59.0,57.2,94,30.01,10.0,North,4.6,-,N/A,,Scattered Clouds,10,2013-08-08 09:25:00
4:40 AM,60.8,57.2,88,30.01,10.0,NNE,3.5,-,N/A,,Mostly Cloudy,20,2013-08-08 09:40:00
4:48 AM,59.0,57.2,94,30.01,9.0,North,3.5,-,N/A,,Mostly Cloudy,10,2013-08-08 09:48:00
4:53 AM,59.0,57.0,93,30.01,9.0,North,4.6,-,N/A,,Mostly Cloudy,350,2013-08-08 09:53:00
5:53 AM,61.0,59.0,93,30.01,7.0,North,4.6,-,N/A,,Mostly Cloudy,360,2013-08-08 10:53:00
6:32 AM,62.6,60.8,94,30.01,6.0,Calm,Calm,-,N/A,,Mostly Cloudy,0,2013-08-08 11:32:00
6:53 AM,63.0,60.1,90,30.00,7.0,East,3.5,-,N/A,,Scattered Clouds,90,2013-08-08 11:53:00
7:53 AM,64.9,61.0,87,30.03,10.0,East,6.9,-,N/A,,Partly Cloudy,90,2013-08-08 12:53:00
8:42 AM,68.0,62.6,83,30.05,10.0,East,9.2,-,N/A,,Mostly Cloudy,100,2013-08-08 13:42:00
8:53 AM,68.0,62.1,81,30.04,10.0,ESE,8.1,-,N/A,,Mostly Cloudy,110,2013-08-08 13:53:00
9:01 AM,68.0,60.8,78,30.04,10.0,ESE,10.4,-,N/A,,Scattered Clouds,120,2013-08-08 14:01:00
9:32 AM,73.4,62.6,69,30.04,10.0,SE,8.1,-,N/A,,Mostly Cloudy,130,2013-08-08 14:32:00
9:53 AM,70.0,62.1,76,30.04,10.0,ESE,6.9,-,N/A,,Mostly Cloudy,110,2013-08-08 14:53:00
10:03 AM,71.6,62.6,73,30.04,10.0,ESE,8.1,-,N/A,,Scattered Clouds,110,2013-08-08 15:03:00
10:53 AM,71.1,61.0,70,30.04,10.0,Variable,4.6,-,N/A,,Scattered Clouds,0,2013-08-08 15:53:00
11:53 AM,73.0,60.1,64,30.04,10.0,ESE,4.6,-,N/A,,Mostly Cloudy,110,2013-08-08 16:53:00
12:53 PM,75.0,60.1,60,30.02,10.0,SE,5.8,-,N/A,,Mostly Cloudy,140,2013-08-08 17:53:00
1:53 PM,75.0,57.0,53,30.01,10.0,Calm,Calm,-,N/A,,Mostly Cloudy,0,2013-08-08 18:53:00
2:53 PM,78.1,55.9,46,29.99,10.0,Calm,Calm,-,N/A,,Mostly Cloudy,0,2013-08-08 19:53:00
3:53 PM,77.0,57.0,50,29.99,10.0,Calm,Calm,-,N/A,,Mostly Cloudy,0,2013-08-08 20:53:00
4:53 PM,75.0,57.9,55,29.98,10.0,ESE,5.8,-,N/A,,Mostly Cloudy,110,2013-08-08 21:53:00
5:53 PM,75.0,59.0,57,29.98,10.0,SE,4.6,-,N/A,,Scattered Clouds,130,2013-08-08 22:53:00
6:53 PM,73.9,59.0,59,29.99,10.0,ESE,5.8,-,N/A,,Mostly Cloudy,120,2013-08-08 23:53:00
7:53 PM,73.0,57.9,59,29.99,10.0,SE,6.9,-,N/A,,Scattered Clouds,140,2013-08-09 00:53:00
8:53 PM,72.0,57.9,61,29.99,10.0,SSE,5.8,-,N/A,,Mostly Cloudy,150,2013-08-09 01:53:00
9:53 PM,69.1,57.9,68,29.99,10.0,SE,5.8,-,N/A,,Partly Cloudy,140,2013-08-09 02:53:00
10:53 PM,66.9,54.0,63,30.00,10.0,SE,8.1,-,N/A,,Scattered Clouds,140,2013-08-09 03:53:00
11:53 PM,66.0,53.1,63,30.00,10.0,South,5.8,-,N/A,,Clear,180,2013-08-09 04:53:00